Location: Altenhof
(50.2418°N, 10.8789°E)
Time: 19:32:40
(UTC+00:00)

Cosmos 2251 Rocket - Pass Details

Date: 18 February 2020
Orbit: 764 x 793 km, 74.0° (Epoch: 03 April)

Event Time Altitude Azimuth Distance (km) Brightness Sun altitude
Exits shadow 03:28:17 54° 142° (SE) 932 3.9 -28.4°
Maximum altitude 03:28:58 60° 108° (ESE) 888 3.9 -28.3°
Drops below altitude 10° 03:34:10 10° 30° (NNE) 2,338 6.5 -27.5°
Sets 03:36:36 0° 27° (NNE) 3,275 7.3 -27.1°
